This is the latest recevied weather packets stored in our database for station/object WD7CGF. If no packets are shown the sender has not sent any weather packets the latest 10 day(s).
| Time | Temp. | Humidity | Pressure | Rain* | Wind** | Luminosity | Snow |
|---|---|---|---|---|---|---|---|
| 1787404121 | 17.78° C | 80% | 1011.8 hPa | 0 mm | - | - | - |
| 1787403516 | 17.78° C | 78% | 1011.9 hPa | 0 mm | - | - | - |
| 1787402926 | 17.78° C | 77% | 1011.9 hPa | 0 mm | - | - | - |
| 1787402323 | 17.78° C | 76% | 1011.8 hPa | 0 mm | - | - | - |
| 1787401721 | 18.33° C | 75% | 1011.8 hPa | 0 mm | - | - | - |
| 1787401115 | 18.33° C | 74% | 1011.8 hPa | 0 mm | - | - | - |
| 1787400530 | 18.89° C | 73% | 1011.7 hPa | 0 mm | - | - | - |
| 1787399924 | 18.89° C | 71% | 1011.6 hPa | 0 mm | - | - | - |
| 1787399316 | 19.44° C | 70% | 1011.6 hPa | 0 mm | - | - | - |
| 1787398730 | 20° C | 69% | 1011.5 hPa | 0 mm | - | - | - |
| 1787398122 | 20.56° C | 68% | 1011.3 hPa | 0 mm | - | - | - |
| 1787397516 | 20.56° C | 67% | 1011.3 hPa | 0 mm | - | - | - |
| 1787396912 | 21.11° C | 65% | 1011.1 hPa | 0 mm | - | - | - |
| 1787396325 | 21.11° C | 65% | 1011.3 hPa | 0 mm | - | - | - |
| 1787395718 | 21.67° C | 63% | 1011.3 hPa | 0 mm | - | - | - |
| 1787395112 | 21.67° C | 64% | 1011.3 hPa | 0 mm | - | - | - |
| 1787394525 | 21.11° C | 64% | 1011.3 hPa | 0 mm | - | - | - |
| 1787393920 | 21.11° C | 65% | 1011.3 hPa | 0 mm | - | - | - |
| 1787393313 | 21.11° C | 65% | 1011.5 hPa | 0 mm | - | - | - |
| 1787392725 | 21.11° C | 62% | 1011.8 hPa | 0 mm | - | - | - |
| 1787392123 | 21.67° C | 61% | 1011.8 hPa | 0 mm | - | - | - |
| 1787391515 | 21.67° C | 61% | 1011.6 hPa | 0 mm | - | - | - |
| 1787390928 | 22.22° C | 60% | 1011.9 hPa | 0 mm | - | - | - |
| 1787390319 | 22.22° C | 59% | 1011.9 hPa | 0 mm | - | - | - |
| 1787389713 | 22.22° C | 59% | 1011.7 hPa | 0 mm | - | - | - |
* Rain latest hour (hover to see other rain measurements)
** Current wind speed in m/s (hover to see current wind gust speed)